Weather History for Springfield, MO

Change the Weather History Date:

Wednesday, October 16, 2013

  Actual Average Record
Temperature  
Mean Temperature 50 °F 58 °F  
Max Temperature 58 °F 69 °F 85 °F (1950)
Min Temperature 41 °F 47 °F 28 °F (1966)
Degree Days  
Heating Degree Days 15 8  
Month to date heating degree days 75 100  
Since 1 July heating degree days 89 155  
Cooling Degree Days 0 1  
Month to date cooling degree days 44 22  
Year to date cooling degree days 1417 1381  
Moisture  
Dew Point 41 °F    
Average Humidity 74    
Maximum Humidity 89    
Minimum Humidity 59    
Precipitation  
Precipitation T in 0.11 in 1.42 in (1899)
Month to date precipitation 3.44 1.83  
Year to date precipitation 43.77 36.55  
Snow  
Snow 0.00 in - - ()
Month to date snowfall 0.0  
Since 1 July snowfall 0.0  
Since 1 September snowfall 0.0  
Snow Depth 0.00 in    
Sea Level Pressure  
Sea Level Pressure 30.06 in    
Wind  
Wind Speed 6 mph (NW)    
Max Wind Speed 15 mph    
Max Gust Speed 20 mph    
Visibility 10 miles    
Events      
T = Trace of Precipitation, MM = Missing Value Source: NWS Daily Summary

Daily Weather History Graph

Daily Weather History Graph

Search for Another Location

Airport:

Trip Planner

Search our weather history database for the weather conditions in past years. The results will help you decide how hot, cold, wet, or windy it might be!

Date:

Astronomy

Oct. 16, 2013 Rise Set
Actual Time 7:22 AM CDT 6:34 PM CDT
Civil Twilight 6:56 AM CDT 7:01 PM CDT
Nautical Twilight 6:26 AM CDT 7:31 PM CDT
Astronomical Twilight 5:55 AM CDT 8:01 PM CDT
Moon 5:12 PM CDT (10/16) 4:54 AM CDT (10/16)
Length of Visible Light 12h 04m
Length of Day
11h 12m
Waxing Gibbous, 94% of the Moon is Illuminated
Oct 16
Waxing Gibbous
Oct 18
Full
Oct 26
Last Quarter
Nov 3
New
Nov 9
First Quarter

Hourly Weather History & Observations

Time (CDT) Temp. Windchill Dew Point Humidity Pressure Visibility Wind Dir Wind Speed Gust Speed Precip Events Conditions
12:52 AM 50.0 °F - 44.1 °F 80% 30.05 in 10.0 mi NNW 11.5 mph - N/A   Mostly Cloudy
1:52 AM 48.0 °F - 41.0 °F 77% 30.07 in 10.0 mi NNW 11.5 mph - N/A   Mostly Cloudy
2:52 AM 46.9 °F - 41.0 °F 80% 30.09 in 10.0 mi NNW 5.8 mph - N/A   Mostly Cloudy
3:52 AM 46.0 °F 43.9 °F 39.9 °F 79% 30.08 in 10.0 mi NW 4.6 mph - N/A   Clear
4:52 AM 43.0 °F 38.8 °F 37.9 °F 82% 30.08 in 10.0 mi NNW 6.9 mph - N/A   Clear
5:52 AM 42.1 °F 37.7 °F 37.9 °F 85% 30.07 in 10.0 mi NNW 6.9 mph - N/A   Clear
6:52 AM 41.0 °F 38.0 °F 37.0 °F 86% 30.08 in 10.0 mi NW 4.6 mph - N/A   Clear
7:52 AM 42.1 °F 40.2 °F 39.0 °F 89% 30.09 in 10.0 mi WNW 3.5 mph - N/A   Clear
8:52 AM 45.0 °F 40.6 °F 39.9 °F 82% 30.11 in 10.0 mi NW 8.1 mph - N/A   Clear
9:52 AM 48.0 °F - 39.9 °F 74% 30.12 in 10.0 mi NW 11.5 mph - N/A   Clear
10:52 AM 50.0 °F - 39.9 °F 68% 30.12 in 10.0 mi WNW 6.9 mph - N/A   Partly Cloudy
11:18 AM 50.0 °F - 39.9 °F 68% 30.11 in 10.0 mi NW 9.2 mph - N/A   Mostly Cloudy
11:49 AM 51.8 °F - 39.2 °F 62% 30.11 in 10.0 mi WNW 9.2 mph - N/A   Scattered Clouds
11:52 AM 52.0 °F - 39.9 °F 63% 30.10 in 10.0 mi West 9.2 mph - N/A   Scattered Clouds
12:52 PM 54.0 °F - 39.9 °F 59% 30.07 in 10.0 mi Variable 3.5 mph - N/A   Partly Cloudy
1:52 PM 55.9 °F - 42.1 °F 60% 30.04 in 10.0 mi NNW 10.4 mph - N/A   Partly Cloudy
2:52 PM 55.9 °F - 43.0 °F 62% 30.03 in 10.0 mi Variable 6.9 mph - 0.00 in   Clear
3:52 PM 55.0 °F - 41.0 °F 59% 30.02 in 10.0 mi NW 5.8 mph - N/A   Partly Cloudy
4:52 PM 55.0 °F - 42.1 °F 62% 30.01 in 10.0 mi West 5.8 mph - N/A   Partly Cloudy
5:52 PM 54.0 °F - 43.0 °F 66% 30.02 in 10.0 mi NNW 5.8 mph - N/A   Mostly Cloudy
6:52 PM 52.0 °F - 43.0 °F 71% 30.02 in 7.0 mi Calm Calm - 0.00 in   Scattered Clouds
7:52 PM 50.0 °F - 44.1 °F 80% 30.04 in 10.0 mi NW 4.6 mph - N/A   Scattered Clouds
8:52 PM 51.1 °F - 44.1 °F 77% 30.05 in 10.0 mi Calm Calm - N/A   Overcast
9:52 PM 51.1 °F - 44.1 °F 77% 30.04 in 10.0 mi NW 3.5 mph - 0.00 in   Overcast
10:52 PM 51.1 °F - 44.1 °F 77% 30.04 in 10.0 mi West 4.6 mph - 0.00 in   Overcast
11:52 PM 51.1 °F - 44.1 °F 77% 30.01 in 10.0 mi Calm Calm - 0.00 in   Overcast